Showing default

ION SCV-020, 64545

Orbit data source: Space-Track

ION SCV-020, 64545 is a payload satellite owned by D-ORBIT (IT) in SSO that was launched on Mon, 23 Jun 2025 UTC via an FALCON 9 launch vehicle from the Air Force Western Test Range (AFWTR). Payload-class satellites include a variety of spacecraft equipped with specific instruments for various scientific and technological missions. These include communications satellites like Starlink; space stations such as the ISS; scientific satellites like the Hubble; Earth observation satellites from companies like Planet Labs, Umbra, and HawkEye 360; GPS; miniature CubeSats for education and research; and military/defense satellites.

Loading next visibility...
Identifier
64545, 2025-135T
Orbit
SSO
Country
Flag of ITIT
Related business
Manufacturer
D-ORBIT
Mission
Operational Commercial Technology
Bus & Motor
ION-SC, PM200
Mass
220 kg wet, 150 kg dry
Launch date (UTC)
2025-06-23 (1 year ago)
Launch vehicle
FALCON 9
Launch site
Air Force Western Test Range (AFWTR)
Object type
Payload
Rocket body
Debris
Shape & HBR
Box, 0.2 m
Radar Cross Section
0.240 m², Large (>1 m²)

Expand to show TLE details & history
Last TLE update: 1 day ago

TLE from 1 day ago
0 ION SCV-020
1 64545U 25135T   26234.87922039  .00002531  00000-0  12222-3 0  9990
2 64545  97.4658 349.0344 0006128 281.5314  78.5233 15.19568648 64970
Epoch: 2026-08-22T21:06Z
TLE epoch observation values (Epoch: 2026-08-22T21:06:04.641Z)
Latitude
0.00001°
Longitude
61.33176°
Altitude
509.394 km
Speed
7.61 km/s
True Right ascension
23h 16m 08s
True Declination
0° 00' 00"
Sunlit
Object was in full shadow at epoch
Visualization orbit readout
Latitude
Unknown
Longitude
Unknown
Altitude
Unknown
Speed
Unknown
Apparent Right ascension
Unknown
Apparent Declination
Unknown
Sunlit
N/A
Visualization observer readout
Local Sidereal Time
21:42:59
Azimuth
Unknown
Elevation
Unknown
Doppler factor
Unknown
Orbital elements
Apogee altitude
508.33 km
Perigee altitude
499.895 km
Semi-major axis
6,882.249 km
Eccentricity
0.00061
Inclination
97.4658°
RAAN
349.0344°
Arg. of periapsis
281.5314°
True anomaly
78.59213°
Mean anomaly
78.5233°
Eccentric anomaly
78.55771°
Mean motion
3.80144 °/min
Orbital period
94.7 mins
BSTAR
0.00012222
Loading maneuver chart data...
Computing Atmospheric mass density...
Loading historical data...
Loading historical data...
Loading historical data...
Loading historical data...
Loading historical data...
Loading historical data...
Loading historical data...

Documentation

Showing up to 5 results
|